When you browse on this site, cookies collect data to enhance your experience and personalize the content and advertising you see.
Visit our Privacy Policy to learn more. By continuing to use the site, you agree to this use of cookies and data.

Hourly Weather Sedan

Today, 5 July, Sunday

Time Temperature Precipitation Wind Pressure Humidity
00:00 +17°C° 0 mm 4 mps 738 mmHg 96%
01:00 +17°C° 0 mm 4 mps 738 mmHg 97%
02:00 +16°C° 0 mm 5 mps 738 mmHg 97%
03:00 +16°C° 0 mm 5 mps 738 mmHg 97%
04:00 +16°C° 0 mm 5 mps 738 mmHg 97%
05:00 +16°C° 0 mm 5 mps 738 mmHg 97%
06:00 +16°C° 0 mm 5 mps 738 mmHg 94%
07:00 +17°C° 0 mm 5 mps 738 mmHg 93%
08:00 +17°C° 0 mm 6 mps 738 mmHg 92%
09:00 +19°C° 0 mm 6 mps 738 mmHg 90%
10:00 +19°C° 0.1 mm 6 mps 738 mmHg 89%
11:00 +19°C° 0.1 mm 6 mps 738 mmHg 87%
12:00 +19°C° 0.1 mm 6 mps 738 mmHg 85%
13:00 +20°C° 0 mm 6 mps 738 mmHg 84%
14:00 +20°C° 0 mm 6 mps 738 mmHg 82%
15:00 +20°C° 0 mm 6 mps 738 mmHg 81%
16:00 +19°C° 0.1 mm 5 mps 738 mmHg 85%
17:00 +19°C° 0.1 mm 5 mps 737 mmHg 88%
18:00 +18°C° 0.1 mm 4 mps 737 mmHg 92%
19:00 +17°C° 0.1 mm 4 mps 737 mmHg 93%
20:00 +15°C° 0.1 mm 4 mps 738 mmHg 94%
21:00 +14°C° 0.1 mm 3 mps 738 mmHg 96%
22:00 +13°C° 0 mm 3 mps 738 mmHg 95%
23:00 +11°C° 0 mm 3 mps 738 mmHg 95%

Tomorrow, 6 July, Monday

Time Temperature Precipitation Wind Pressure Humidity
00:00 +10°C° 0 mm 3 mps 738 mmHg 94%
01:00 +9°C° 0 mm 3 mps 738 mmHg 94%
02:00 +9°C° 0 mm 3 mps 738 mmHg 94%
03:00 +8°C° 0 mm 3 mps 738 mmHg 94%
04:00 +9°C° 0 mm 3 mps 738 mmHg 92%
05:00 +10°C° 0 mm 4 mps 739 mmHg 90%
06:00 +11°C° 0 mm 4 mps 739 mmHg 87%
07:00 +12°C° 0.1 mm 5 mps 739 mmHg 83%
08:00 +12°C° 0.1 mm 5 mps 739 mmHg 79%
09:00 +13°C° 0.1 mm 5 mps 740 mmHg 76%
10:00 +14°C° 0.3 mm 6 mps 740 mmHg 74%
11:00 +15°C° 0.3 mm 6 mps 740 mmHg 72%
12:00 +16°C° 0.3 mm 6 mps 740 mmHg 70%
13:00 +16°C° 0.2 mm 6 mps 740 mmHg 66%
14:00 +17°C° 0.2 mm 6 mps 740 mmHg 62%
15:00 +17°C° 0.2 mm 6 mps 741 mmHg 58%
16:00 +17°C° 0.1 mm 5 mps 741 mmHg 62%
17:00 +16°C° 0.1 mm 5 mps 741 mmHg 66%
18:00 +15°C° 0.1 mm 4 mps 741 mmHg 70%
19:00 +13°C° 0 mm 3 mps 742 mmHg 77%
20:00 +13°C° 0 mm 2 mps 742 mmHg 85%
21:00 +10°C° 0 mm 2 mps 743 mmHg 92%
22:00 +9°C° 0 mm 2 mps 743 mmHg 93%
23:00 +10°C° 0 mm 1 mps 743 mmHg 94%

Day after tomorrow, 7 July, Tuesday

Time Temperature Precipitation Wind Pressure Humidity
00:00 +9°C° 0 mm 1 mps 743 mmHg 95%
01:00 +9°C° 0 mm 1 mps 743 mmHg 94%
02:00 +8°C° 0 mm 1 mps 743 mmHg 94%
03:00 +8°C° 0 mm 1 mps 743 mmHg 93%
04:00 +9°C° 0 mm 1 mps 743 mmHg 89%
05:00 +11°C° 0 mm 1 mps 743 mmHg 86%
06:00 +12°C° 0 mm 1 mps 743 mmHg 82%
07:00 +14°C° 0 mm 1 mps 743 mmHg 74%
08:00 +16°C° 0 mm 1 mps 743 mmHg 66%
09:00 +17°C° 0 mm 2 mps 744 mmHg 58%
10:00 +18°C° 0 mm 2 mps 743 mmHg 56%
11:00 +19°C° 0 mm 2 mps 743 mmHg 55%
12:00 +19°C° 0 mm 2 mps 742 mmHg 54%
13:00 +20°C° 0 mm 3 mps 742 mmHg 56%
14:00 +20°C° 0 mm 3 mps 742 mmHg 57%
15:00 +20°C° 0 mm 3 mps 741 mmHg 59%
16:00 +20°C° 0 mm 3 mps 741 mmHg 63%
17:00 +19°C° 0 mm 2 mps 741 mmHg 68%
18:00 +19°C° 0 mm 2 mps 741 mmHg 73%
19:00 +17°C° 0 mm 2 mps 741 mmHg 77%
20:00 +15°C° 0 mm 1 mps 741 mmHg 82%
21:00 +13°C° 0 mm 1 mps 741 mmHg 87%
22:00 +13°C° 0 mm 1 mps 740 mmHg 89%
23:00 +12°C° 0 mm 1 mps 740 mmHg 91%

8 July, Wednesday

Time Temperature Precipitation Wind Pressure Humidity
00:00 +12°C° 0 mm 1 mps 740 mmHg 93%
01:00 +12°C° 0 mm 1 mps 740 mmHg 93%
02:00 +11°C° 0 mm 1 mps 739 mmHg 94%
03:00 +11°C° 0 mm 1 mps 739 mmHg 95%
04:00 +12°C° 0 mm 2 mps 739 mmHg 92%
05:00 +13°C° 0 mm 2 mps 739 mmHg 88%
06:00 +14°C° 0 mm 2 mps 739 mmHg 85%
07:00 +14°C° 0 mm 3 mps 740 mmHg 77%
08:00 +17°C° 0 mm 3 mps 740 mmHg 70%
09:00 +18°C° 0 mm 4 mps 740 mmHg 62%
10:00 +19°C° 0 mm 4 mps 740 mmHg 65%
11:00 +19°C° 0 mm 4 mps 740 mmHg 67%
12:00 +19°C° 0 mm 4 mps 740 mmHg 70%
13:00 +20°C° 0.1 mm 4 mps 740 mmHg 71%
14:00 +20°C° 0.1 mm 4 mps 740 mmHg 72%
15:00 +20°C° 0.1 mm 4 mps 740 mmHg 73%
16:00 +19°C° 0 mm 4 mps 740 mmHg 74%
17:00 +19°C° 0 mm 3 mps 740 mmHg 75%
18:00 +19°C° 0 mm 3 mps 740 mmHg 76%
19:00 +17°C° 0 mm 2 mps 740 mmHg 82%
20:00 +15°C° 0 mm 2 mps 740 mmHg 87%
21:00 +14°C° 0 mm 1 mps 740 mmHg 93%
22:00 +13°C° 0 mm 1 mps 740 mmHg 93%
23:00 +13°C° 0 mm 1 mps 741 mmHg 93%

9 July, Thursday

Time Temperature Precipitation Wind Pressure Humidity
00:00 +11°C° 0 mm 0 mps 741 mmHg 93%
01:00 +11°C° 0 mm 0 mps 741 mmHg 93%
02:00 +10°C° 0 mm 0 mps 741 mmHg 94%
03:00 +10°C° 0 mm 0 mps 741 mmHg 94%
04:00 +11°C° 0 mm 0 mps 741 mmHg 92%
05:00 +12°C° 0 mm 0 mps 741 mmHg 89%
06:00 +14°C° 0 mm 0 mps 741 mmHg 87%
07:00 +16°C° 0 mm 0 mps 741 mmHg 79%
08:00 +17°C° 0 mm 0 mps 741 mmHg 72%
09:00 +21°C° 0 mm 1 mps 742 mmHg 64%
10:00 +22°C° 0 mm 1 mps 741 mmHg 61%
11:00 +23°C° 0 mm 1 mps 741 mmHg 58%
12:00 +24°C° 0 mm 1 mps 741 mmHg 55%
13:00 +24°C° 0 mm 1 mps 741 mmHg 55%
14:00 +24°C° 0 mm 1 mps 740 mmHg 56%
15:00 +24°C° 0 mm 2 mps 740 mmHg 57%
16:00 +24°C° 0 mm 1 mps 740 mmHg 62%
17:00 +23°C° 0 mm 1 mps 739 mmHg 67%
18:00 +23°C° 0 mm 1 mps 739 mmHg 73%
19:00 +21°C° 0 mm 1 mps 739 mmHg 77%
20:00 +19°C° 0 mm 1 mps 739 mmHg 82%
21:00 +16°C° 0 mm 1 mps 739 mmHg 86%
22:00 +15°C° 0 mm 1 mps 738 mmHg 88%
23:00 +15°C° 0 mm 1 mps 738 mmHg 89%

10 July, Friday

Time Temperature Precipitation Wind Pressure Humidity
00:00 +15°C° 0 mm 1 mps 738 mmHg 91%
01:00 +14°C° 0 mm 1 mps 737 mmHg 91%
02:00 +14°C° 0 mm 1 mps 737 mmHg 92%
03:00 +14°C° 0 mm 1 mps 737 mmHg 93%
04:00 +15°C° 0 mm 1 mps 737 mmHg 91%
05:00 +16°C° 0 mm 1 mps 736 mmHg 88%
06:00 +17°C° 0 mm 2 mps 736 mmHg 86%
07:00 +18°C° 0 mm 2 mps 736 mmHg 81%
08:00 +20°C° 0 mm 3 mps 737 mmHg 76%
09:00 +21°C° 0 mm 3 mps 737 mmHg 71%
10:00 +20°C° 0.1 mm 4 mps 737 mmHg 76%
11:00 +19°C° 0.1 mm 4 mps 737 mmHg 81%
12:00 +19°C° 0.1 mm 4 mps 736 mmHg 86%
13:00 +19°C° 0 mm 4 mps 737 mmHg 81%
14:00 +19°C° 0 mm 4 mps 737 mmHg 76%
15:00 +19°C° 0 mm 4 mps 737 mmHg 71%
16:00 +19°C° 0 mm 4 mps 737 mmHg 70%
17:00 +18°C° 0 mm 4 mps 738 mmHg 69%
18:00 +18°C° 0 mm 4 mps 738 mmHg 68%
19:00 +16°C° 0 mm 3 mps 738 mmHg 74%
20:00 +12°C° 0 mm 3 mps 739 mmHg 80%
21:00 +10°C° 0 mm 2 mps 739 mmHg 87%
22:00 +9°C° 0 mm 2 mps 740 mmHg 89%
23:00 +10°C° 0 mm 1 mps 740 mmHg 90%
Show more